, AK

(GMT )
Portage Glacier

Weather History for PATO - October, 2012

Change the Weather History Date:

Sunday, October 7, 2012

  Actual Average Record
Temperature  
Mean Temperature 47 °F -  
Max Temperature 48 °F - - ()
Min Temperature 46 °F - - ()
Degree Days  
Heating Degree Days 18    
Moisture  
Dew Point 45 °F    
Average Humidity 92    
Maximum Humidity 97    
Minimum Humidity 83    
Precipitation  
Precipitation 0.10 in - - ()
Sea Level Pressure  
Sea Level Pressure 30.34 in    
Wind  
Wind Speed 10 mph (SE)    
Max Wind Speed 14 mph    
Max Gust Speed 23 mph    
Visibility 10 miles    
Events Rain    
Averages and records for this station are not official NWS values.
T = Trace of Precipitation, MM = Missing Value Source: NWS Daily Summary

Daily Weather History Graph

Daily Weather History Graph

Search for Another Location

Airport or City:

Trip Planner

Search our weather history database for the weather conditions in past years. The results will help you decide how hot, cold, wet, or windy it might be!

Date:

Astronomy

Oct. 07, 2012 Rise Set
Actual Time 8:18 AM AKDT 7:06 PM AKDT
Civil Twilight 7:35 AM AKDT 7:49 PM AKDT
Nautical Twilight 6:45 AM AKDT 8:38 PM AKDT
Astronomical Twilight 5:54 AM AKDT 9:29 PM AKDT
Moon 11:22 PM AKDT (10/7) 4:10 PM AKDT (10/7)
Length of Visible Light 12h 13m
Length of Day
10h 48m
Waning Gibbous, 55% of the Moon is Illuminated
Oct 7
Waning Gibbous
Oct 7
Last Quarter
Oct 15
New
Oct 21
First Quarter
Oct 29
Full

Hourly Weather History & Observations

Time (AKDT) Temp. Windchill Dew Point Humidity Pressure Visibility Wind Dir Wind Speed Gust Speed Precip Events Conditions
12:12 AM 46.9 °F - 45.0 °F 93% 30.35 in 10.0 mi SE 10.4 mph - N/A   Overcast
12:53 AM 46.9 °F - 46.0 °F 97% 30.35 in 10.0 mi SSE 9.2 mph 18.4 mph N/A   Overcast
1:53 AM 46.9 °F - 46.0 °F 97% 30.36 in 10.0 mi SE 9.2 mph 18.4 mph 0.01 in Rain Light Rain
2:53 AM 46.9 °F - 46.0 °F 97% 30.35 in 10.0 mi SE 10.4 mph 20.7 mph 0.02 in Rain Light Rain
3:53 AM 46.9 °F - 46.0 °F 97% 30.35 in 10.0 mi SE 9.2 mph - 0.02 in Rain Light Rain
4:53 AM 46.9 °F - 45.0 °F 93% 30.34 in 10.0 mi SE 10.4 mph 17.3 mph 0.01 in Rain Light Rain
5:25 AM 46.9 °F - 45.0 °F 93% 30.34 in 10.0 mi SE 10.4 mph 17.3 mph 0.00 in Rain Light Rain
6:38 AM 46.9 °F - 45.0 °F 93% 30.33 in 10.0 mi SE 12.7 mph 19.6 mph 0.00 in   Overcast
6:53 AM 46.0 °F 41.0 °F 45.0 °F 96% 30.34 in 10.0 mi SE 10.4 mph 18.4 mph 0.00 in Rain Light Rain
7:53 AM 46.0 °F 41.0 °F 45.0 °F 96% 30.32 in 10.0 mi SSE 10.4 mph 17.3 mph 0.02 in Rain Light Rain
8:53 AM 46.9 °F - 45.0 °F 93% 30.34 in 10.0 mi SSE 10.4 mph 20.7 mph 0.00 in   Overcast
9:53 AM 46.0 °F 41.4 °F 45.0 °F 96% 30.34 in 10.0 mi SSE 9.2 mph 18.4 mph 0.00 in Rain Light Rain
10:53 AM 46.9 °F - 44.1 °F 90% 30.35 in 10.0 mi SE 9.2 mph 18.4 mph 0.00 in   Overcast
11:53 AM 46.9 °F - 45.0 °F 93% 30.35 in 10.0 mi SSE 11.5 mph 19.6 mph 0.01 in Rain Light Rain
12:53 PM 46.9 °F - 45.0 °F 93% 30.35 in 10.0 mi SE 13.8 mph 21.9 mph 0.01 in Rain Light Rain
1:53 PM 46.9 °F - 45.0 °F 93% 30.35 in 10.0 mi SSE 10.4 mph 20.7 mph 0.00 in Rain Light Rain
2:53 PM 48.0 °F - 45.0 °F 89% 30.34 in 10.0 mi SE 8.1 mph 23.0 mph 0.00 in   Overcast
3:53 PM 48.0 °F - 44.1 °F 86% 30.34 in 10.0 mi ESE 9.2 mph 18.4 mph N/A   Overcast
4:37 PM 48.0 °F - 44.1 °F 86% 30.33 in 10.0 mi ESE 8.1 mph 17.3 mph N/A   Overcast
4:53 PM 48.0 °F - 44.1 °F 86% 30.32 in 10.0 mi ESE 9.2 mph 17.3 mph N/A   Overcast
5:12 PM 48.9 °F - 44.1 °F 83% 30.32 in 10.0 mi ESE 10.4 mph - N/A   Overcast
5:53 PM 48.0 °F - 44.1 °F 86% 30.33 in 10.0 mi ESE 6.9 mph - N/A   Overcast
6:05 PM 48.0 °F - 44.1 °F 86% 30.32 in 10.0 mi Variable 5.8 mph - N/A   Overcast
6:53 PM 46.9 °F - 44.1 °F 90% 30.32 in 10.0 mi East 10.4 mph 17.3 mph N/A   Overcast
7:53 PM 46.0 °F 41.0 °F 44.1 °F 93% 30.32 in 10.0 mi ENE 10.4 mph - N/A   Overcast
8:53 PM 46.0 °F 41.0 °F 44.1 °F 93% 30.32 in 10.0 mi East 10.4 mph - N/A   Overcast
9:53 PM 46.0 °F 42.5 °F 44.1 °F 93% 30.32 in 10.0 mi East 6.9 mph - N/A   Overcast
11:53 PM 46.0 °F 40.2 °F 44.1 °F 93% 30.31 in 10.0 mi East 12.7 mph 19.6 mph N/A   Scattered Clouds